AirNav   Duncan Aviation - Near you to keep you flying
 
 1035 users online  

3OR8 Cline Falls Air Park
Redmond, Oregon, USA

GOING TO REDMOND?


FAA INFORMATION EFFECTIVE 11 AUGUST 2022

Location

FAA Identifier: 3OR8
Lat/Long: 44-16-59.4280N 121-16-09.1310W
44-16.990467N 121-16.152183W
44.2831744,-121.2692031
(estimated)
Elevation: 2920 ft. / 890 m (estimated)
Variation: 19E (1985)
From city: 4 miles W of REDMOND, OR
Time zone: UTC -7 (UTC -8 during Standard Time)
Zip code: 97756

Airport Operations

Airport use: Private use. Permission required prior to landing
Activation date: 01/1969
Control tower: no
ARTCC: SEATTLE CENTER
FSS: MC MINNVILLE FLIGHT SERVICE STATION
Attendance: CONTINUOUS
Wind indicator: yes
Segmented circle: no

Airport Communications

WX ASOS at RDM (5 nm E): 119.025 (541-504-8743)
WX AWOS-3 at BDN (12 nm S): 134.425 (541-382-1477)
WX AWOS-3PT at S39 (16 nm E): 118.325 (541-447-4060)

Nearby radio navigation aids

VOR radial/distance  VOR name  Freq  Var
DSDr021/2.3DESCHUTES VORTAC117.6018E

Airport Services

Airframe service: NONE
Powerplant service: NONE

Runway Information

Runway E/W

Dimensions: 3000 x 150 ft. / 914 x 46 m
Surface: dirt
Runway edge markings: E/W WHITE BNDRY MKRS, WITH REFLECTORS.
RUNWAY E  RUNWAY W
Traffic pattern: leftleft
Markings: NSTDNSTD
Obstructions: pline treesnone
P-LINE PARALLEL ON N SIDE.

Airport Ownership and Management from official FAA records

Ownership: Privately-owned
Owner: CLINE FALLS ARPT ASSOC, INC
8301 W. HWY 126
REDMOND, OR 97756
Phone 503-548-5523
Manager: D.C. KELLY
8301 W. HWY 126
REDMOND, OR 97756
Phone 503-548-5523
ADDITIONAL CONTACT: AMBERS THORNBURGH 19419 W HWY 126 REDMOND, OR 97756 541-420-0607

Airport Operational Statistics

Aircraft based on the field: 11
Single engine airplanes: 10
Ultralights: 1
    

Additional Remarks

FOR CD CTC SEATTLE ARTCC AT 253-351-3694.

Instrument Procedures

There are no published instrument procedures at 3OR8.

Some nearby airports with instrument procedures:

KRDM - Roberts Field Airport (5 nm E)
KBDN - Bend Municipal Airport (12 nm S)
S39 - Prineville Airport (16 nm E)
S33 - Madras Municipal Airport (24 nm N)
S21 - Sunriver Airport (26 nm S)
 
Loc | Ops | Rwys | IFR | FBO | Links
Com | Nav | Svcs | Stats | Notes
Area around 3OR8 (Cline Falls Air Park)
 
Road maps at: MapQuest Bing Google
 
Aerial photo
WARNING: Photo may not be current or correct
Aerial photo of 3OR8 (Cline Falls Air Park)
Photo taken 24-Mar-2014
looking east.

Do you have a better or more recent aerial photo of Cline Falls Air Park that you would like to share? If so, please send us your photo.

 
Sectional chart

 
Airport distance calculator
Flying to Cline Falls Air Park? Find the distance to fly.

From to 3OR8

Sunrise and sunset
Times for 13-Aug-2022
 Local
(UTC-7)
 Zulu
(UTC)
Morning civil twilight05:3512:35
Sunrise06:0713:07
Sunset20:1303:13
Evening civil twilight20:4403:44

Current date and time
Zulu (UTC)  13-Aug-2022 21:55:11
Local (UTC-7)  13-Aug-2022 14:55:11
 
METAR
KRDM 
5nm E 
132056Z 08005KT 10SM CLR 28/03 A3015 RMK AO2 SLP190 6//// T02780028 58012 PNO $
KBDN 
12nm S 
132135Z AUTO 05007G13KT 10SM CLR 28/M01 A3017 RMK AO2
KS39 
16nm E 
132135Z AUTO VRB04G10KT 10SM CLR 27/M00 A3015 RMK AO2
TAF
KRDM 
5nm E 
131720Z 1318/1418 VRB05KT P6SM SKC FM132000 32010G18KT P6SM SKC FM140300 30008KT P6SM SKC FM140800 16004KT P6SM SKC
KBDN 
12nm S 
131720Z 1318/1418 VRB05KT P6SM SKC FM132000 32010G18KT P6SM SKC FM140300 27008KT P6SM SKC FM140800 22004KT P6SM SKC
NOTAMs
Click for the latest NOTAMs
NOTAMs are issued by the DoD/FAA and will open in a separate window not controlled by AirNav.

 

 
 

Would you like to see your business listed on this page?

 If your business provides an interesting product or service to pilots, flight crews, aircraft, or users of the Cline Falls Air Park, you should consider listing it here.  To start the listing process, click on the button below
 
Add a business
 

Other Pages about Cline Falls Air Park

Update a link
 
Copyright © AirNav, LLC. All rights reserved. Privacy Policy  Contact